Terminal Aerodrome Forecast
Issued by NWS

Home | Current Version | Previous Version | Text Only | Print | Product List | Glossary On
Versions: 1 2 3 4 5 6 7 8 9 10 11
000
FTUS46 KMTR 122320
TAFOAK
TAF
KOAK 122320Z 1300/1406 29006KT P6SM FEW200
     FM130300 VRB03KT P6SM SKC
     FM131300 03004KT P6SM SKC
     FM132200 29006KT P6SM SKC
     FM140400 VRB03KT P6SM SKC=

USA.gov is the U.S. government's official web portal to all federal, state and local government web resources and services.